This is the latest recevied weather packets stored in our database for station/object KE6JJJ-1. If no packets are shown the sender has not sent any weather packets the latest 10 day(s).
| Time | Temp. | Humidity | Pressure | Rain* | Wind** | Luminosity | Snow |
|---|---|---|---|---|---|---|---|
| 1778058303 | 13.89° C | 81% | 1018.7 hPa | 0 mm | - | 0 W/m² | - |
| 1778056503 | 13.89° C | 81% | 1018.7 hPa | 0 mm | - | 0 W/m² | - |
| 1778054711 | 13.89° C | 81% | 1018.8 hPa | 0 mm | - | 0 W/m² | - |
| 1778052903 | 13.89° C | 82% | 1018.5 hPa | 0 mm | - | 0 W/m² | - |
| 1778051104 | 13.89° C | 82% | 1018.4 hPa | 0 mm | - | 0 W/m² | - |
| 1778049303 | 13.89° C | 81% | 1018.1 hPa | 0 mm | - | 0 W/m² | - |
| 1778047569 | 14.44° C | 81% | 1018.1 hPa | 0 mm | - | 0 W/m² | - |
| 1778047503 | 14.44° C | 81% | 1018.1 hPa | 0 mm | - | 0 W/m² | - |
| 1778045703 | 14.44° C | 81% | 1018 hPa | 0 mm | - | 0 W/m² | - |
| 1778043904 | 14.44° C | 81% | 1017.8 hPa | 0 mm | - | 0 W/m² | - |
| 1778042112 | 14.44° C | 82% | 1017.6 hPa | 0 mm | - | 0 W/m² | - |
| 1778040309 | 14.44° C | 80% | 1017 hPa | 0 mm | - | 0 W/m² | - |
| 1778038503 | 14.44° C | 79% | 1016.5 hPa | 0 mm | - | 0 W/m² | - |
| 1778036704 | 15° C | 77% | 1016.4 hPa | 0 mm | - | 3 W/m² | - |
| 1778034903 | 15.56° C | 76% | 1016.2 hPa | 0 mm | - | 23 W/m² | - |
| 1778033104 | 16.11° C | 73% | 1015.8 hPa | 0 mm | - | 53 W/m² | - |
| 1778031304 | 16.67° C | 71% | 1015.9 hPa | 0 mm | - | 220 W/m² | - |
| 1778029504 | 17.78° C | 69% | 1015.8 hPa | 0 mm | - | 352 W/m² | - |
| 1778027703 | 17.78° C | 69% | 1015.7 hPa | 0 mm | - | 359 W/m² | - |
| 1778025903 | 17.22° C | 71% | 1015.6 hPa | 0 mm | - | 364 W/m² | - |
| 1778024103 | 17.78° C | 69% | 1015.7 hPa | 0 mm | - | 314 W/m² | - |
| 1778022303 | 18.89° C | 66% | 1015.5 hPa | 0 mm | - | 599 W/m² | - |
| 1778020503 | 17.78° C | 69% | 1015.4 hPa | 0 mm | - | 805 W/m² | - |
| 1778018703 | 17.22° C | 70% | 1015.6 hPa | 0 mm | - | 387 W/m² | - |
| 1778016903 | 17.78° C | 69% | 1015.8 hPa | 0 mm | - | 397 W/m² | - |
* Rain latest hour (hover to see other rain measurements)
** Current wind speed in m/s (hover to see current wind gust speed)